Location: Bambrugge
(50.9212°N, 3.9299°E)
Time: 21:57:15
(UTC+00:00)

SL-16 R/B - Pass Details

Date: 14 August 2024
Orbit: 842 x 845 km, 71.0° (Epoch: 10 September)

Event Time Altitude Azimuth Distance (km) Brightness Sun altitude
Exits shadow 01:41:15 - 275° (W) 2,756 4.6 -20.4°
Reaches altitude 10° 01:42:20 10° 283° (WNW) 2,470 4.5 -20.3°
Maximum altitude 01:46:16 19° 327° (NNW) 1,924 4.3 -20.0°
Drops below altitude 10° 01:50:12 10° 11° (NNE) 2,478 5.7 -19.7°
Sets 01:53:27 0° 30° (NNE) 3,416 7.0 -19.4°
